• In Slovakia
  • List of Countries
  • For 7 days
  • Water Temperature
  • Satellite Maps
  • Weather Map
  • Weather Widgets
  • user-avatar
    Login

    Hourly Weather Jewłach

    Today, 20 May, Sunday

    Time Temperature Precipitation Wind Pressure Humidity
    00:00 +23°C° 0 mm 2 mps 762 mmHg 46%
    01:00 +21°C° 0 mm 2 mps 762 mmHg 47%
    02:00 +22°C° 0 mm 1 mps 761 mmHg 48%
    03:00 +22°C° 0 mm 1 mps 761 mmHg 50%
    04:00 +22°C° 0 mm 1 mps 761 mmHg 50%
    05:00 +23°C° 0 mm 1 mps 761 mmHg 50%
    06:00 +23°C° 0 mm 1 mps 761 mmHg 49%
    07:00 +25°C° 0 mm 1 mps 761 mmHg 44%
    08:00 +26°C° 0 mm 1 mps 761 mmHg 38%
    09:00 +28°C° 0 mm 1 mps 760 mmHg 34%
    10:00 +29°C° 0 mm 2 mps 760 mmHg 32%
    11:00 +30°C° 0 mm 2 mps 760 mmHg 31%
    12:00 +31°C° 0 mm 2 mps 760 mmHg 29%
    13:00 +31°C° 0 mm 2 mps 759 mmHg 29%
    14:00 +32°C° 0 mm 2 mps 759 mmHg 29%
    15:00 +32°C° 0 mm 2 mps 759 mmHg 29%
    16:00 +31°C° 0.1 mm 2 mps 759 mmHg 33%
    17:00 +30°C° 0.1 mm 2 mps 759 mmHg 36%
    18:00 +29°C° 0.1 mm 2 mps 759 mmHg 39%
    19:00 +28°C° 0.1 mm 2 mps 759 mmHg 40%
    20:00 +27°C° 0.1 mm 2 mps 760 mmHg 41%
    21:00 +26°C° 0.1 mm 2 mps 760 mmHg 41%
    22:00 +25°C° 0 mm 2 mps 760 mmHg 41%
    23:00 +25°C° 0 mm 2 mps 760 mmHg 41%

    Tomorrow, 21 May, Monday

    Time Temperature Precipitation Wind Pressure Humidity
    00:00 +24°C° 0 mm 1 mps 760 mmHg 41%
    01:00 +24°C° 0 mm 1 mps 760 mmHg 41%
    02:00 +23°C° 0 mm 2 mps 760 mmHg 42%
    03:00 +23°C° 0 mm 2 mps 760 mmHg 42%
    04:00 +23°C° 0 mm 2 mps 760 mmHg 44%
    05:00 +24°C° 0 mm 2 mps 760 mmHg 46%
    06:00 +24°C° 0 mm 2 mps 760 mmHg 48%
    07:00 +25°C° 0 mm 2 mps 760 mmHg 43%
    08:00 +27°C° 0 mm 2 mps 760 mmHg 39%
    09:00 +28°C° 0 mm 2 mps 760 mmHg 34%
    10:00 +29°C° 0 mm 2 mps 760 mmHg 33%
    11:00 +30°C° 0 mm 2 mps 760 mmHg 31%
    12:00 +31°C° 0 mm 2 mps 759 mmHg 30%
    13:00 +31°C° 0 mm 2 mps 759 mmHg 30%
    14:00 +32°C° 0 mm 2 mps 759 mmHg 29%
    15:00 +32°C° 0 mm 2 mps 759 mmHg 29%
    16:00 +32°C° 0 mm 2 mps 759 mmHg 32%
    17:00 +31°C° 0 mm 2 mps 759 mmHg 34%
    18:00 +31°C° 0 mm 2 mps 759 mmHg 37%
    19:00 +29°C° 0 mm 2 mps 759 mmHg 37%
    20:00 +28°C° 0 mm 2 mps 760 mmHg 38%
    21:00 +27°C° 0 mm 2 mps 760 mmHg 39%
    22:00 +26°C° 0 mm 2 mps 760 mmHg 39%
    23:00 +25°C° 0 mm 2 mps 761 mmHg 39%

    Day after tomorrow, 22 May, Tuesday

    Time Temperature Precipitation Wind Pressure Humidity
    00:00 +25°C° 0 mm 2 mps 761 mmHg 40%
    01:00 +24°C° 0.1 mm 2 mps 761 mmHg 41%
    02:00 +24°C° 0.1 mm 2 mps 761 mmHg 43%
    03:00 +24°C° 0.1 mm 2 mps 761 mmHg 44%
    04:00 +24°C° 0 mm 2 mps 761 mmHg 45%
    05:00 +24°C° 0 mm 2 mps 761 mmHg 46%
    06:00 +25°C° 0 mm 2 mps 762 mmHg 47%
    07:00 +26°C° 0 mm 2 mps 762 mmHg 41%
    08:00 +28°C° 0 mm 2 mps 762 mmHg 35%
    09:00 +29°C° 0 mm 2 mps 762 mmHg 29%
    10:00 +30°C° 0 mm 2 mps 762 mmHg 26%
    11:00 +33°C° 0 mm 3 mps 762 mmHg 24%
    12:00 +34°C° 0 mm 3 mps 762 mmHg 21%
    13:00 +34°C° 0 mm 4 mps 762 mmHg 21%
    14:00 +35°C° 0 mm 4 mps 762 mmHg 20%
    15:00 +35°C° 0 mm 4 mps 761 mmHg 20%
    16:00 +34°C° 0 mm 4 mps 761 mmHg 22%
    17:00 +33°C° 0 mm 4 mps 761 mmHg 25%
    18:00 +32°C° 0 mm 4 mps 761 mmHg 28%
    19:00 +30°C° 0 mm 3 mps 762 mmHg 29%
    20:00 +28°C° 0 mm 3 mps 762 mmHg 31%
    21:00 +26°C° 0 mm 3 mps 763 mmHg 32%
    22:00 +25°C° 0 mm 3 mps 763 mmHg 33%
    23:00 +25°C° 0 mm 2 mps 763 mmHg 34%

    23 May, Wednesday

    Time Temperature Precipitation Wind Pressure Humidity
    00:00 +24°C° 0 mm 2 mps 763 mmHg 35%
    01:00 +24°C° 0 mm 2 mps 763 mmHg 34%
    02:00 +23°C° 0 mm 1 mps 762 mmHg 34%
    03:00 +23°C° 0 mm 1 mps 762 mmHg 33%
    04:00 +23°C° 0 mm 1 mps 762 mmHg 34%
    05:00 +24°C° 0 mm 2 mps 762 mmHg 34%
    06:00 +24°C° 0 mm 2 mps 762 mmHg 35%
    07:00 +26°C° 0 mm 2 mps 762 mmHg 31%
    08:00 +28°C° 0 mm 2 mps 762 mmHg 27%
    09:00 +30°C° 0 mm 2 mps 762 mmHg 23%
    10:00 +31°C° 0 mm 2 mps 762 mmHg 21%
    11:00 +32°C° 0 mm 2 mps 761 mmHg 19%
    12:00 +33°C° 0 mm 1 mps 761 mmHg 16%
    13:00 +35°C° 0 mm 2 mps 760 mmHg 16%
    14:00 +35°C° 0 mm 3 mps 760 mmHg 15%
    15:00 +36°C° 0 mm 4 mps 760 mmHg 15%
    16:00 +35°C° 0 mm 4 mps 760 mmHg 17%
    17:00 +34°C° 0 mm 3 mps 759 mmHg 20%
    18:00 +33°C° 0 mm 3 mps 759 mmHg 23%
    19:00 +30°C° 0 mm 3 mps 760 mmHg 24%
    20:00 +28°C° 0 mm 3 mps 760 mmHg 26%
    21:00 +26°C° 0 mm 3 mps 761 mmHg 27%
    22:00 +25°C° 0 mm 2 mps 760 mmHg 28%
    23:00 +24°C° 0 mm 2 mps 760 mmHg 29%

    24 May, Thursday

    Time Temperature Precipitation Wind Pressure Humidity
    00:00 +24°C° 0 mm 2 mps 760 mmHg 30%
    01:00 +23°C° 0 mm 2 mps 760 mmHg 30%
    02:00 +23°C° 0 mm 1 mps 759 mmHg 30%
    03:00 +22°C° 0 mm 1 mps 759 mmHg 30%
    04:00 +23°C° 0 mm 2 mps 759 mmHg 31%
    05:00 +23°C° 0 mm 2 mps 759 mmHg 31%
    06:00 +24°C° 0 mm 2 mps 759 mmHg 32%
    07:00 +26°C° 0 mm 2 mps 758 mmHg 29%
    08:00 +28°C° 0 mm 2 mps 758 mmHg 25%
    09:00 +29°C° 0 mm 3 mps 758 mmHg 21%
    10:00 +31°C° 0 mm 2 mps 758 mmHg 19%
    11:00 +32°C° 0 mm 2 mps 757 mmHg 17%
    12:00 +34°C° 0 mm 2 mps 757 mmHg 15%
    13:00 +34°C° 0 mm 2 mps 756 mmHg 14%
    14:00 +35°C° 0 mm 3 mps 756 mmHg 14%
    15:00 +35°C° 0 mm 3 mps 756 mmHg 13%
    16:00 +34°C° 0 mm 3 mps 756 mmHg 16%
    17:00 +33°C° 0 mm 3 mps 756 mmHg 18%
    18:00 +31°C° 0 mm 3 mps 756 mmHg 21%
    19:00 +29°C° 0 mm 3 mps 756 mmHg 23%
    20:00 +27°C° 0 mm 3 mps 757 mmHg 25%
    21:00 +25°C° 0 mm 3 mps 757 mmHg 27%
    22:00 +24°C° 0 mm 3 mps 757 mmHg 30%
    23:00 +24°C° 0 mm 2 mps 757 mmHg 32%

    25 May, Friday

    Time Temperature Precipitation Wind Pressure Humidity
    00:00 +23°C° 0 mm 2 mps 757 mmHg 35%
    01:00 +21°C° 0 mm 2 mps 757 mmHg 36%
    02:00 +22°C° 0 mm 1 mps 756 mmHg 37%
    03:00 +21°C° 0 mm 1 mps 756 mmHg 38%
    04:00 +22°C° 0 mm 1 mps 757 mmHg 37%
    05:00 +23°C° 0 mm 1 mps 757 mmHg 37%
    06:00 +23°C° 0 mm 1 mps 757 mmHg 37%
    07:00 +25°C° 0 mm 2 mps 757 mmHg 34%
    08:00 +27°C° 0 mm 2 mps 757 mmHg 30%
    09:00 +29°C° 0 mm 2 mps 757 mmHg 27%
    10:00 +30°C° 0 mm 2 mps 756 mmHg 25%
    11:00 +31°C° 0 mm 1 mps 756 mmHg 23%
    12:00 +32°C° 0 mm 1 mps 755 mmHg 22%
    13:00 +33°C° 0 mm 1 mps 755 mmHg 21%
    14:00 +33°C° 0 mm 1 mps 755 mmHg 20%
    15:00 +34°C° 0 mm 1 mps 755 mmHg 19%
    16:00 +33°C° 0 mm 1 mps 755 mmHg 22%
    17:00 +33°C° 0 mm 1 mps 755 mmHg 25%
    18:00 +32°C° 0 mm 1 mps 755 mmHg 27%
    19:00 +30°C° 0 mm 1 mps 756 mmHg 29%
    20:00 +28°C° 0 mm 2 mps 756 mmHg 31%
    21:00 +27°C° 0 mm 2 mps 757 mmHg 33%
    22:00 +26°C° 0 mm 2 mps 757 mmHg 35%
    23:00 +25°C° 0 mm 2 mps 757 mmHg 38%
    Show more